目前分類:電影時刻 (75)

瀏覽方式: 標題列表 簡短摘要
發表時間 文章標題 人氣 留言
2012-04-28 2011 3D龍門飛甲 The Flying Swords of Dragon Gate (56) (0)
2012-04-27 2011 快樂腳2 Happy Feet Two (248) (0)
2012-04-26 2012 鴻門宴 White Vengeance (147) (0)
2012-04-25 2012 即刻獵殺 The Grey (298) (0)
2012-04-24 2011 超級8 Super 8 (51) (0)
2012-04-23 2011 勇者無敵 Warrior (86) (0)
2012-04-22 2009 建國大業 Jian guo da ye (10) (0)
2012-04-21 2011 暮光之城:破曉Ⅰ The Twilight Saga: Breaking Dawn - Part 1 (102) (0)
2012-04-01 2011 紅酒燉香雞 KOKOWÄÄH (105) (0)
2012-03-31 2011 魔境冒險3D The Nutcracker in 3D (47) (0)
2012-03-30 2011 玩咖尬宅爸 The Change-Up (151) (0)
2012-03-25 2011 3D劍客聯盟:雲端之戰 The Three Musketeers 3D (104) (0)
2012-02-24 2011 鋼鐵擂台 Real Steel (121) (0)
2012-02-24 2011 餓夜:終極食人族 We Are What We Are (986) (0)
2012-02-10 2011 鐘點戰 The Sorcerer and the White Snake (87) (0)
2012-02-10 2008 江山美人 An Empress And The Warriors (22) (0)
2012-02-10 2011 戰國 The Warring State (129) (0)
2012-01-21 2011 法海:白蛇傳說 The Sorcerer and the White Snake (207) (0)
2012-01-21 2011 名偵探柯南:沉默的15分鐘 Quarter of Silence (54) (0)
2012-01-21 2004 秘窗 Secret Window (116) (0)
2012-01-18 2011 活在這一天 Life in a Day (205) (0)
2012-01-17 2007 麻吉向前走 Reign Over Me (24) (0)
2011-12-18 2011 大白鯊3D Shark Night 3D (168) (0)
2011-12-18 2011 王者之劍3D Conan the Barbarian (91) (0)
2011-11-27 2011 戰神世紀 Immortals (261) (0)
2011-11-23 2011 猩球崛起 Rise of The Planet of The Apes (56) (0)
2011-11-23 2011 醉後大丈夫2 The Hangover 2 (96) (0)
2011-11-23 2011 3D驚天洞地 Sanctum (90) (0)
2011-11-01 2011 功夫熊貓2 Kung Fu Panda 2 (130) (0)
2011-11-01 2011 藍色小精靈 The Smurfs (153) (0)
2011-10-20 2008 決戰末世代 Doomsday (163) (0)
2011-10-20 2011 波普先生的企鵝 Mr. Popper's Penguins (85) (0)
2011-10-19 2011 開運兔 Hop (42) (0)
2011-10-19 1994 笑林小子2:新烏龍院 Shaolin Popey 2: Messy Temple (244) (0)
2011-10-17 2011 關雲長 The Lost Bladesman (26) (0)
2011-10-09 2011 全民情獸 The Zookeeper (37) (0)
2011-09-21 2011 加勒比海盜 神鬼奇航:幽靈海 Pirates of the Caribbean : On the Stranger Tides (76) (0)
2011-09-21 2010 危險古跡 Dark Relic (81) (0)
2011-09-16 2011 飆風雷哥 Rango (48) (0)
2011-09-16 2011 藥命效應 Limitless (127) (0)
2011-08-28 2011 倩女幽魂2011 A Chinese Ghost Story 2011 (56) (0)
2011-08-14 2010 鐵拳 Tekken (95) (0)
2011-08-14 2008 當地球停止轉動 The Day the Earth Stood Still (78) (0)
2011-07-23 2010 線人 The Stool Pigeon (20) (0)
2011-07-23 2009 崖上の波妞 Ponyo On The Cliff by The Sea (170) (0)
2011-07-23 2010 魔法師的學徒 The Sorcerer's Apprentice (24) (0)
2011-07-23 2011 血紅帽 Red Riding Hood (72) (0)
2011-07-12 2011 讓子彈飛 Let The Bullets Fly (679) (0)
2011-07-11 2011 獵魔教士 3D PRIEST (94) (0)
2011-07-11 2011 命運規劃局 The Adjustment Bureau (139) (0)
1 2